Voltar ao catálogo

FENGYUN 1C DEB

AtivoSSO
NORAD 31094·DEBRIS·🇨🇳 China

Lançado May 10, 1999 de Taiyuan Satellite Launch Center

Loading…

Próximas Passagens (próximas 24 horas)

TLE

AtualizadoSource: Space-Track

Época: Sep 14, 2026, 13:38 UTC

1 31094U 99025BGQ 26257.56850550  .00001430  00000-0  90042-3 0  9994
2 31094  98.8402 122.7446 0106324 359.2704   0.8292 14.03129981994867

Acompanhe FENGYUN 1C DEB em tempo real com AllMySat

Download on the App Store